Sedalia, MO

2:27 PM CDT on July 22, 2017 (GMT -0500)
Sedalia Memorial

Weather History for KDMO - April, 2014

Change the Weather History Date:

Sunday, April 13, 2014

  Actual Average Record
Temperature  
Mean Temperature 59 °F 56 °F  
Max Temperature 73 °F 67 °F 90 °F (1972)
Min Temperature 45 °F 45 °F 22 °F (1950)
Degree Days  
Heating Degree Days 6 10  
Month to date heating degree days 142 152  
Since 1 July heating degree days 5055 4354  
Cooling Degree Days 0 1  
Month to date cooling degree days 6 12  
Year to date cooling degree days 6 15  
Growing Degree Days 12 (Base 50)    
Moisture  
Dew Point 56 °F    
Average Humidity 73    
Maximum Humidity 93    
Minimum Humidity 53    
Precipitation  
Precipitation 0.99 in 0.12 in 2.44 in (1945)
Month to date precipitation 5.35 1.42  
Year to date precipitation 7.06 7.63  
Sea Level Pressure  
Sea Level Pressure 29.59 in    
Wind  
Wind Speed 14 mph (SSW)    
Max Wind Speed 32 mph    
Max Gust Speed 40 mph    
Visibility 8 miles    
Events Rain , Thunderstorm    
T = Trace of Precipitation, MM = Missing Value Source: NWS Daily Summary

Daily Weather History Graph

Daily Weather History Graph

Search for Another Location

Airport or City:

Trip Planner

Search our weather history database for the weather conditions in past years. The results will help you decide how hot, cold, wet, or windy it might be!

Date:

Astronomy

Apr. 13, 2014 Rise Set
Actual Time 6:39 AM CDT 7:47 PM CDT
Civil Twilight 6:11 AM CDT 8:15 PM CDT
Nautical Twilight 5:39 AM CDT 8:47 PM CDT
Astronomical Twilight 5:05 AM CDT 9:21 PM CDT
Moon 6:26 PM CDT (4/13) 5:37 AM CDT (4/13)
Length of Visible Light 14h 03m
Length of Day
13h 08m
Waxing Gibbous, 97% of the Moon is Illuminated
Apr 13
Waxing Gibbous
Apr 15
Full
Apr 22
Last Quarter
Apr 29
New
May 6
First Quarter

Hourly Weather History & Observations

Time (CDT) Temp. Dew Point Humidity Pressure Visibility Wind Dir Wind Speed Gust Speed Precip Events Conditions
12:53 AM 72.0 °F 53.1 °F 51% 29.70 in 10.0 mi SW 12.7 mph - N/A   Overcast
1:53 AM 70.0 °F 54.0 °F 57% 29.69 in 10.0 mi SSW 6.9 mph - N/A   Mostly Cloudy
2:53 AM 66.0 °F 54.0 °F 65% 29.67 in 10.0 mi SSE 4.6 mph - N/A   Mostly Cloudy
3:53 AM 64.0 °F 54.0 °F 70% 29.67 in 10.0 mi ESE 4.6 mph - N/A   Partly Cloudy
4:53 AM 66.0 °F 54.0 °F 65% 29.65 in 10.0 mi ESE 5.8 mph - N/A   Overcast
5:53 AM 64.9 °F 55.0 °F 70% 29.64 in 10.0 mi East 8.1 mph - N/A   Overcast
6:53 AM 64.0 °F 55.0 °F 73% 29.65 in 10.0 mi SSE 11.5 mph - 0.00 in Rain Light Rain
7:53 AM 63.0 °F 57.0 °F 81% 29.63 in 10.0 mi South 15.0 mph - 0.02 in Rain Light Rain
8:13 AM 63.0 °F 57.9 °F 84% 29.68 in 9.0 mi SSW 15.0 mph - 0.01 in Rain , Thunderstorm Light Thunderstorms and Rain
8:42 AM 64.0 °F 60.1 °F 87% 29.67 in 2.0 mi SSW 11.5 mph - 0.08 in Rain , Thunderstorm Light Thunderstorms and Rain
8:50 AM 64.4 °F 60.8 °F 88% 29.67 in 8.0 mi South 13.8 mph - 0.08 in Rain Light Rain
8:51 AM 64.0 °F 61.0 °F 90% 29.65 in 8.0 mi South 13.8 mph - 0.08 in Rain Light Rain
9:53 AM 64.9 °F 60.1 °F 84% 29.64 in 10.0 mi SSE 12.7 mph - 0.00 in Rain Light Rain
10:53 AM 66.9 °F 61.0 °F 81% 29.62 in 10.0 mi South 18.4 mph 25.3 mph 0.00 in Rain Light Rain
11:53 AM 68.0 °F 61.0 °F 78% 29.61 in 10.0 mi SSW 15.0 mph - 0.01 in   Partly Cloudy
12:53 PM 68.0 °F 60.1 °F 76% 29.60 in 10.0 mi South 23.0 mph 34.5 mph 0.00 in Rain Light Rain
1:53 PM 66.9 °F 62.1 °F 84% 29.55 in 10.0 mi South 19.6 mph - 0.04 in Rain Light Rain
2:53 PM 70.0 °F 60.1 °F 71% 29.52 in 10.0 mi South 18.4 mph 26.5 mph 0.00 in   Mostly Cloudy
3:53 PM 69.1 °F 60.1 °F 73% 29.49 in 10.0 mi South 18.4 mph 26.5 mph 0.04 in   Overcast
4:18 PM 69.1 °F 60.1 °F 73% 29.49 in 10.0 mi SSE 15.0 mph - N/A Thunderstorm Overcast
4:33 PM 70.0 °F 60.1 °F 71% 29.49 in 10.0 mi South 13.8 mph - N/A   Overcast
4:53 PM 71.1 °F 59.0 °F 66% 29.46 in 10.0 mi South 18.4 mph 25.3 mph 0.00 in   Overcast
5:53 PM 72.0 °F 57.9 °F 61% 29.46 in 10.0 mi South 24.2 mph 29.9 mph 0.00 in   Scattered Clouds
6:27 PM 61.0 °F 52.0 °F 72% 29.56 in 8.0 mi WNW 23.0 mph 40.3 mph 0.00 in Rain Light Rain
6:35 PM 59.0 °F 53.1 °F 81% 29.57 in 1.5 mi WNW 17.3 mph 35.7 mph 0.15 in Rain Rain
6:37 PM 57.9 °F 54.0 °F 87% 29.57 in 0.8 mi WNW 15.0 mph 31.1 mph 0.20 in Rain , Thunderstorm Heavy Rain
6:46 PM 57.0 °F 54.0 °F 89% 29.58 in 0.8 mi WSW 12.7 mph - 0.38 in Rain , Thunderstorm Heavy Thunderstorms and Rain
7:01 PM 57.0 °F 54.0 °F 89% 29.56 in 1.8 mi WSW 8.1 mph - 0.05 in Rain , Thunderstorm Heavy Thunderstorms and Rain
7:09 PM 55.9 °F 54.0 °F 93% 29.57 in 2.5 mi SW 11.5 mph - 0.07 in Rain , Thunderstorm Rain
7:14 PM 55.9 °F 54.0 °F 93% 29.57 in 4.0 mi SW 9.2 mph - 0.08 in Rain , Thunderstorm Light Thunderstorms and Rain
7:35 PM 55.9 °F 54.0 °F 93% 29.58 in 6.0 mi SSW 11.5 mph - 0.13 in Rain , Thunderstorm Rain
7:44 PM 55.9 °F 54.0 °F 93% 29.58 in 6.0 mi South 10.4 mph - 0.17 in Rain , Thunderstorm Thunderstorms and Rain
7:53 PM 55.9 °F 54.0 °F 93% 29.56 in 6.0 mi South 8.1 mph - 0.21 in Rain , Thunderstorm Thunderstorms and Rain
8:04 PM 55.9 °F 54.0 °F 93% 29.55 in 5.0 mi SSW 8.1 mph - 0.04 in Rain , Thunderstorm Rain
8:28 PM 55.9 °F 54.0 °F 93% 29.54 in 10.0 mi South 12.7 mph - 0.09 in Rain Light Rain
8:48 PM 55.4 °F 53.6 °F 94% 29.48 in 10.0 mi ESE 12.7 mph - 0.10 in Rain Light Rain
8:53 PM 55.9 °F 54.0 °F 93% 29.48 in 10.0 mi SE 11.5 mph - 0.11 in Rain Light Rain
9:53 PM 55.9 °F 54.0 °F 93% 29.57 in 10.0 mi WSW 12.7 mph - 0.00 in   Scattered Clouds
10:05 PM 53.1 °F 50.0 °F 89% 29.60 in 10.0 mi WNW 16.1 mph 24.2 mph N/A   Mostly Cloudy
10:53 PM 51.1 °F 48.0 °F 89% 29.60 in 5.0 mi NW 16.1 mph 23.0 mph 0.00 in Rain Light Rain
11:53 PM 48.0 °F 46.0 °F 93% 29.64 in 3.0 mi NW 13.8 mph - 0.00 in Rain Light Rain